Waarnemingen

Advertentie
Mijn weer
Vilhelmina, Zweden (2245): temperatuur & dauwpunt: 12.12.2017 17:00:00 - 18.12.2017 17:00:00 (CET)Vilhelmina, Zweden (2245): windsnelheid & windstoten: 12.12.2017 17:00:00 - 18.12.2017 17:00:00 (CET)Vilhelmina, Zweden (2245): windrichting: 12.12.2017 17:00:00 - 18.12.2017 17:00:00 (CET)Vilhelmina, Zweden (2245): luchtdruk: 12.12.2017 17:00:00 - 18.12.2017 17:00:00 (CET)Vilhelmina, Zweden (2245): zicht: 12.12.2017 17:00:00 - 18.12.2017 17:00:00 (CET)Vilhelmina, Zweden (2245): neerslag: 12.12.2017 17:00:00 - 18.12.2017 17:00:00 (CET)
Datum & Tijd tt [°C] td [°C] ff [km/u] ff [kn] fx [km/u] fx [kn] dd ppp [hPa] vv [km] rr [mm]
18.12.2017 17:00:00 -3,3 -3,8 5 3 8 4 - 1010,1 10 -
18.12.2017 16:00:00 -3,7 -4,2 4 2 9 5 - 1009,4 1,9 0,0
18.12.2017 15:00:00 -4,4 -5,1 4 2 8 4 - 1009,4 10 -
18.12.2017 14:00:00 -5,0 -5,7 5 3 8 5 - 1009,3 1,8 -
18.12.2017 13:00:00 -5,2 -6,2 5 3 9 5 - 1009,2 10 0,0
18.12.2017 12:00:00 -5,3 -6,5 4 2 5 3 ZO 1009,2 10 -
18.12.2017 11:00:00 -5,5 -7,0 0 0 8 4 N 1009,2 10 0,0
18.12.2017 10:00:00 -5,5 -7,0 5 3 8 4 - 1008,9 10 -
18.12.2017 09:00:00 -5,6 -6,7 0 0 4 2 N 1008,3 10 -
18.12.2017 08:00:00 -6,9 -7,7 0 0 4 2 N 1008,1 10 -
18.12.2017 07:00:00 -6,8 -7,5 2 1 3 1 O 1008,1 10 -
18.12.2017 06:00:00 -7,8 -8,6 0 0 1 1 N 1007,8 10 -
18.12.2017 05:00:00 -7,8 -8,6 0 0 2 1 N 1007,5 10 -
18.12.2017 04:00:00 -7,4 -8,1 0 0 5 3 N 1007,6 10 -
18.12.2017 03:00:00 -4,9 -5,9 4 2 7 4 - 1006,7 10 -
18.12.2017 02:00:00 -4,8 -5,6 5 3 9 5 ZZW 1006,6 10 -
18.12.2017 01:00:00 -4,3 -5,3 5 3 8 4 ZZW 1006,4 10 -
18.12.2017 00:00:00 -4,2 -5,0 5 3 7 4 ZZW 1006,4 10 -
17.12.2017 23:00:00 -4,4 -5,2 4 2 7 4 - 1006,3 10 -
17.12.2017 22:00:00 -4,3 -5,1 5 3 9 5 Z 1006,2 10 -
17.12.2017 21:00:00 -4,1 -4,8 8 4 11 6 ZZW 1006,1 10 -
17.12.2017 20:00:00 -4,3 -5,0 5 3 7 4 Z 1006,1 10 -
17.12.2017 19:00:00 -4,8 -5,5 4 2 5 3 - 1005,9 10 -
17.12.2017 18:00:00 -5,3 -6,0 4 2 6 3 ZZW 1005,6 10 -
17.12.2017 17:00:00 -5,7 -6,4 4 2 5 3 Z 1005,5 10 -
17.12.2017 16:00:00 -6,4 -7,1 4 2 8 5 - 1005,5 10 -
17.12.2017 15:00:00 -7,0 -7,7 4 2 6 3 - 1005,5 10 -
17.12.2017 14:00:00 -11,0 -12,2 0 0 2 1 N 1006,1 10 -
17.12.2017 13:00:00 -11,4 -12,6 0 0 3 2 N 1006,5 10 -
17.12.2017 12:00:00 -11,9 -13,1 2 1 3 2 O 1006,6 10 -
17.12.2017 11:00:00 -13,0 -14,3 2 1 3 2 OZO 1007,1 10 -
17.12.2017 10:00:00 -13,4 -14,7 2 1 3 2 O 1007,2 10 -
17.12.2017 09:00:00 -13,9 -15,3 0 0 3 2 N 1007,0 10 -
17.12.2017 08:00:00 -15,3 -16,7 0 0 2 1 N 1007,2 10 -
17.12.2017 07:00:00 -16,5 -18,0 0 0 1 1 N 1007,3 10 -
17.12.2017 06:00:00 -17,2 -18,8 0 0 2 1 N 1007,3 10 -
17.12.2017 05:00:00 -16,7 -18,4 0 0 1 1 N 1007,5 10 -
17.12.2017 04:00:00 -16,5 -18,2 2 1 2 1 O 1007,1 10 -
17.12.2017 03:00:00 -16,1 -17,6 0 0 1 1 N 1006,9 10 -
17.12.2017 02:00:00 -15,7 -17,1 0 0 3 1 N 1007,0 10 -
17.12.2017 01:00:00 -14,1 -15,7 0 0 2 1 N 1006,5 10 -
17.12.2017 00:00:00 -11,9 -13,1 0 0 2 1 N 1006,3 10 -
16.12.2017 23:00:00 -12,0 -13,2 0 0 2 1 N 1006,4 10 -
16.12.2017 22:00:00 -13,7 -15,0 0 0 2 1 N 1006,6 10 -
16.12.2017 21:00:00 -10,3 -11,3 2 1 3 2 ONO 1005,9 10 -
16.12.2017 20:00:00 -9,0 -9,8 0 0 4 2 N 1005,9 10 -
16.12.2017 19:00:00 -9,0 -9,8 0 0 4 2 N 1005,6 9 -
16.12.2017 18:00:00 -8,9 -9,7 0 0 3 2 N 1005,5 10 -
16.12.2017 17:00:00 -9,0 -9,8 0 0 4 2 N 1005,1 10 -
16.12.2017 16:00:00 -8,8 -9,6 0 0 4 2 N 1004,7 8 -
16.12.2017 15:00:00 -8,8 -9,5 4 2 5 3 ZW 1004,3 10 -
16.12.2017 14:00:00 -8,5 -9,2 5 3 6 4 WZW 1003,7 9 -
16.12.2017 13:00:00 -7,9 -8,6 4 2 5 3 - 1003,3 6 -
16.12.2017 12:00:00 -7,4 -8,1 2 1 5 3 - 1003,0 8 -
16.12.2017 11:00:00 -7,4 -7,9 4 2 4 2 - 1002,6 6 -
16.12.2017 10:00:00 -6,9 -7,4 4 2 6 3 - 1002,3 7 -
16.12.2017 09:00:00 -6,6 -7,3 2 1 3 2 - 1001,7 10 -
16.12.2017 08:00:00 -6,7 -7,4 0 0 5 3 N 1001,1 10 -
16.12.2017 07:00:00 -6,4 -7,2 0 0 4 2 N 1000,4 9 -
16.12.2017 06:00:00 -6,6 -7,4 0 0 3 1 N 1000,0 10 -
16.12.2017 05:00:00 -6,6 -7,4 0 0 2 1 N 999,6 10 -
16.12.2017 04:00:00 -6,6 -7,4 0 0 2 1 N 999,4 10 -
16.12.2017 03:00:00 -6,5 -7,3 2 1 3 2 WZW 998,9 10 -
16.12.2017 02:00:00 -6,4 -7,1 4 2 4 2 W 998,6 8 -
16.12.2017 01:00:00 -6,6 -7,3 0 0 2 1 N 998,2 10 -
16.12.2017 00:00:00 -6,4 -7,2 0 0 3 1 N 997,8 9 0,0
15.12.2017 23:00:00 -6,2 -7,0 4 2 4 2 W 997,4 9 -
15.12.2017 22:00:00 -6,1 -6,9 2 1 3 2 WNW 997,1 9 0,0
15.12.2017 21:00:00 -6,2 -7,0 0 0 3 2 N 996,7 8 0,0
15.12.2017 20:00:00 -6,4 -7,2 0 0 3 1 N 996,5 10 0,0
15.12.2017 19:00:00 -6,2 -7,0 4 2 6 3 W 996,1 10 -
15.12.2017 18:00:00 -6,4 -7,2 4 2 4 2 WNW 995,7 10 -
15.12.2017 17:00:00 -6,5 -7,3 4 2 3 2 W 995,3 10 -
15.12.2017 16:00:00 -6,7 -7,5 0 0 3 2 N 995,1 10 -
15.12.2017 15:00:00 -7,0 -7,8 0 0 1 0 N 994,8 10 -
15.12.2017 14:00:00 -6,9 -7,8 0 0 2 1 N 994,4 10 -
15.12.2017 13:00:00 -7,0 -7,9 2 1 4 2 - 994,1 10 -
15.12.2017 12:00:00 -7,2 -8,1 2 1 3 2 - 993,7 10 0,0
15.12.2017 11:00:00 -7,4 -8,3 0 0 2 1 N 993,4 8 0,0
15.12.2017 10:00:00 -7,5 -8,4 0 0 3 1 N 993,3 10 0,0
15.12.2017 09:00:00 -7,6 -8,5 0 0 1 1 N 992,8 10 -
15.12.2017 08:00:00 -7,7 -8,6 0 0 2 1 N 992,4 5 0,0
15.12.2017 07:00:00 -7,8 -8,7 0 0 2 1 N 991,9 4,6 0,0
15.12.2017 06:00:00 -8,0 -8,9 0 0 3 2 N 991,4 5 0,0
15.12.2017 05:00:00 -8,0 -8,9 2 1 3 1 - 991,1 5 0,0
15.12.2017 04:00:00 -8,2 -9,1 0 0 2 1 N 990,8 6 -
15.12.2017 03:00:00 -8,3 -9,4 0 0 3 2 N 990,7 2,7 -
15.12.2017 02:00:00 -8,5 -9,4 2 1 4 2 WNW 990,4 1,7 -
15.12.2017 01:00:00 -8,8 -9,9 0 0 3 2 N 990,2 1,4 -
15.12.2017 00:00:00 -8,9 -10,0 4 2 4 2 WNW 990,1 10 0,0
14.12.2017 23:00:00 -9,1 -10,2 4 2 3 2 WNW 989,9 2,4 -
14.12.2017 22:00:00 -9,2 -10,3 2 1 3 2 WNW 989,6 10 0,0
14.12.2017 21:00:00 -9,5 -10,6 4 2 3 2 WNW 989,5 1,6 0,0
14.12.2017 20:00:00 -9,7 -10,8 2 1 3 2 WNW 989,4 1,3 -
14.12.2017 19:00:00 -9,8 -11,0 4 2 3 2 W 989,3 1,5 0,0
14.12.2017 18:00:00 -10,0 -11,2 0 0 3 2 N 989,1 2,0 0,0
14.12.2017 17:00:00 -10,1 -11,3 2 1 3 2 WNW 988,8 1,2 0,0
14.12.2017 16:00:00 -10,3 -11,5 2 1 3 2 WNW 988,8 1,1 -
14.12.2017 15:00:00 -10,4 -11,6 0 0 3 2 N 988,6 1,3 -
14.12.2017 14:00:00 -10,6 -11,8 2 1 4 2 WNW 988,5 1,2 0,0
14.12.2017 13:00:00 -10,8 -12,0 2 1 3 2 W 988,2 10 -
14.12.2017 12:00:00 -11,2 -12,4 4 2 4 2 W 988,4 10 -
14.12.2017 11:00:00 -11,7 -12,9 2 1 3 2 WNW 988,4 10 -
14.12.2017 10:00:00 -12,0 -13,2 4 2 4 2 WNW 988,2 10 -
14.12.2017 09:00:00 -12,3 -13,6 0 0 3 1 N 987,9 9 -
14.12.2017 08:00:00 -12,6 -13,9 2 1 3 1 - 987,7 4,0 -
14.12.2017 07:00:00 -12,9 -14,2 2 1 3 2 W 987,6 8 0,0
14.12.2017 06:00:00 -13,1 -14,4 2 1 2 1 W 987,6 1,4 0,0
14.12.2017 05:00:00 -13,4 -14,7 0 0 3 2 N 987,6 5 0,0
14.12.2017 04:00:00 -13,7 -15,1 0 0 1 1 N 987,6 10 0,0
14.12.2017 03:00:00 -13,8 -15,2 0 0 1 1 N 987,7 10 0,0
14.12.2017 02:00:00 -14,1 -15,5 0 0 1 1 N 987,8 6 0,0
14.12.2017 01:00:00 -14,2 -15,5 0 0 2 1 N 987,6 0,4 0,0
14.12.2017 00:00:00 -14,0 -15,4 0 0 3 1 N 987,6 9 0,0
13.12.2017 23:00:00 -14,3 -15,7 2 1 3 2 ONO 987,4 2,4 0,0
13.12.2017 22:00:00 -14,0 -15,3 0 0 2 1 N 987,4 6 0,0
13.12.2017 21:00:00 -14,4 -15,8 0 0 3 2 N 987,1 9 0,0
13.12.2017 20:00:00 -14,3 -15,6 0 0 2 1 N 987,0 8 0,0
13.12.2017 19:00:00 -14,5 -16,0 0 0 2 1 N 986,8 9 0,0
13.12.2017 18:00:00 -15,0 -16,5 4 2 3 2 OZO 986,6 10 0,0
13.12.2017 17:00:00 -16,1 -17,7 0 0 2 1 N 986,7 10 -
13.12.2017 16:00:00 -19,6 -21,4 0 0 2 1 N 986,9 10 0,0
13.12.2017 15:00:00 -19,2 -21,0 0 0 2 1 N 986,7 9 -
13.12.2017 14:00:00 -17,6 -19,4 0 0 2 1 N 986,2 10 -
13.12.2017 13:00:00 -16,2 -17,9 0 0 3 2 N 986,1 5 0,0
13.12.2017 12:00:00 -14,6 -16,0 0 0 1 1 N 986,3 5 0,0
13.12.2017 11:00:00 -14,8 -16,5 0 0 3 2 N 986,4 10 -
13.12.2017 10:00:00 -13,6 -15,0 0 0 4 2 N 986,6 9 0,0
13.12.2017 09:00:00 -12,5 -13,5 0 0 3 2 N 986,2 9 0,0
13.12.2017 08:00:00 -10,3 -11,5 0 0 4 2 N 986,6 10 -
13.12.2017 07:00:00 -10,3 -11,5 5 3 7 4 Z 986,9 10 -
13.12.2017 06:00:00 -9,2 -10,4 0 0 3 1 N 986,8 10 -
13.12.2017 05:00:00 -8,2 -9,4 2 1 5 3 - 987,2 10 -
13.12.2017 04:00:00 -7,0 -8,6 5 3 8 4 NW 987,5 10 -
13.12.2017 03:00:00 -6,6 -8,4 5 3 9 5 WNW 987,8 10 -
13.12.2017 02:00:00 -6,6 -7,8 5 3 5 3 WNW 988,0 10 -
13.12.2017 01:00:00 -6,7 -7,8 4 2 4 2 - 988,4 10 -
13.12.2017 00:00:00 -7,3 -8,2 5 3 6 3 W 989,1 10 -
12.12.2017 23:00:00 -7,6 -8,5 4 2 6 4 - 989,5 10 0,0
12.12.2017 22:00:00 -8,2 -9,1 5 3 5 3 WNW 990,2 10 0,0
12.12.2017 21:00:00 -7,7 -8,6 4 2 6 3 W 990,7 50 -
12.12.2017 20:00:00 -8,3 -9,1 5 3 6 3 W 991,2 10 -
12.12.2017 19:00:00 -7,0 -7,8 5 3 7 4 WNW 991,7 10 -
12.12.2017 18:00:00 -7,5 -8,2 4 2 5 3 W 992,5 9 -
12.12.2017 17:00:00 -6,2 -6,9 4 2 6 4 - 992,9 9 -

tt = temperatuur
td = dauwpunt
ff = windsnelheid
fx = windstoten
dd = windrichting
ppp = luchtdruk
vv = zicht
rr = neerslag

Weerstations in de omgeving